Weather History for Salt Lake City, UT

Change the Weather History Date:

Wednesday, January 15, 2014

  Actual Average Record
Temperature  
Mean Temperature 35 °F 29 °F  
Max Temperature 43 °F 37 °F 57 °F (2000)
Min Temperature 26 °F 22 °F -17 °F (1888)
Degree Days  
Heating Degree Days 30 36  
Month to date heating degree days 507 540  
Since 1 July heating degree days 2798 2834  
Cooling Degree Days 0 0  
Month to date cooling degree days 0 0  
Year to date cooling degree days 0 0  
Moisture  
Dew Point 25 °F    
Average Humidity 69    
Maximum Humidity 92    
Minimum Humidity 46    
Precipitation  
Precipitation 0.00 in 0.04 in 0.91 in (1995)
Month to date precipitation 0.57 0.63  
Year to date precipitation 0.57 0.63  
Snow  
Snow 0.00 in 0.40 in 4.90 in (1991)
Month to date snowfall 8.3 6.5  
Since 1 July snowfall 31.0 28.7  
Snow Depth 2.00 in    
Sea Level Pressure  
Sea Level Pressure 30.55 in    
Wind  
Wind Speed 5 mph (South)    
Max Wind Speed 10 mph    
Max Gust Speed 13 mph    
Visibility 10 miles    
Events      
T = Trace of Precipitation, MM = Missing Value Source: NWS Daily Summary

Daily Weather History Graph

Daily Weather History Graph

Search for Another Location

Airport:

Trip Planner

Search our weather history database for the weather conditions in past years. The results will help you decide how hot, cold, wet, or windy it might be!

Date:

Astronomy

Jan. 15, 2014 Rise Set
Actual Time 7:49 AM MST 5:25 PM MST
Civil Twilight 7:19 AM MST 5:55 PM MST
Nautical Twilight 6:45 AM MST 6:29 PM MST
Astronomical Twilight 6:13 AM MST 7:01 PM MST
Moon 5:26 PM MST (1/15) 7:08 AM MST (1/15)
Length of Visible Light 10h 35m
Length of Day
9h 35m
Full, 100% of the Moon is Illuminated
Jan 15
Full
Jan 15
Full
Jan 23
Last Quarter
Jan 30
New
Feb 6
First Quarter

Hourly Weather History & Observations

Time (MST) Temp. Windchill Dew Point Humidity Pressure Visibility Wind Dir Wind Speed Gust Speed Precip Events Conditions
12:53 AM 30.9 °F 24.3 °F 25.0 °F 79% 30.58 in 10.0 mi SSE 6.9 mph - N/A   Partly Cloudy
1:53 AM 30.0 °F 23.2 °F 24.1 °F 79% 30.59 in 10.0 mi SE 6.9 mph - N/A   Partly Cloudy
2:53 AM 28.9 °F 20.4 °F 24.1 °F 82% 30.57 in 10.0 mi SE 9.2 mph - N/A   Scattered Clouds
3:53 AM 28.9 °F 21.1 °F 24.1 °F 82% 30.56 in 10.0 mi SSE 8.1 mph - N/A   Partly Cloudy
4:53 AM 28.9 °F 21.9 °F 24.1 °F 82% 30.59 in 10.0 mi SE 6.9 mph - N/A   Partly Cloudy
5:53 AM 28.0 °F 19.3 °F 23.0 °F 81% 30.60 in 10.0 mi ESE 9.2 mph - N/A   Scattered Clouds
6:53 AM 27.0 °F 20.5 °F 21.9 °F 81% 30.61 in 10.0 mi SE 5.8 mph - N/A   Partly Cloudy
7:53 AM 28.0 °F 20.0 °F 23.0 °F 81% 30.60 in 10.0 mi SE 8.1 mph - N/A   Partly Cloudy
8:53 AM 28.9 °F 20.4 °F 23.0 °F 78% 30.61 in 10.0 mi ESE 9.2 mph - N/A   Partly Cloudy
9:53 AM 35.1 °F 28.6 °F 23.0 °F 61% 30.62 in 10.0 mi SE 8.1 mph - N/A   Partly Cloudy
10:53 AM 37.0 °F 33.3 °F 24.1 °F 59% 30.61 in 10.0 mi SE 4.6 mph - N/A   Partly Cloudy
11:53 AM 42.1 °F 40.2 °F 23.0 °F 47% 30.59 in 10.0 mi NNW 3.5 mph - N/A   Scattered Clouds
12:53 PM 41.0 °F 39.0 °F 26.1 °F 55% 30.53 in 10.0 mi NNW 3.5 mph - N/A   Scattered Clouds
1:46 PM 41.0 °F 37.1 °F 27.0 °F 57% 30.50 in 10.0 mi NW 5.8 mph - N/A   Scattered Clouds
1:53 PM 41.0 °F 38.0 °F 27.0 °F 57% 30.50 in 10.0 mi WNW 4.6 mph - N/A   Scattered Clouds
2:53 PM 42.1 °F 38.4 °F 26.1 °F 53% 30.49 in 10.0 mi North 5.8 mph - N/A   Scattered Clouds
3:53 PM 42.1 °F - 26.1 °F 53% 30.47 in 10.0 mi Calm Calm - N/A   Mostly Cloudy
4:53 PM 39.0 °F 36.8 °F 26.1 °F 60% 30.51 in 10.0 mi WNW 3.5 mph - N/A   Mostly Cloudy
5:53 PM 34.0 °F - 28.0 °F 79% 30.52 in 10.0 mi Calm Calm - N/A   Scattered Clouds
6:53 PM 34.0 °F 31.0 °F 30.0 °F 85% 30.51 in 10.0 mi WNW 3.5 mph - N/A   Scattered Clouds
7:53 PM 30.9 °F 27.5 °F 27.0 °F 85% 30.52 in 9.0 mi NNW 3.5 mph - N/A   Scattered Clouds
8:53 PM 30.0 °F 25.2 °F 27.0 °F 88% 30.53 in 9.0 mi NW 4.6 mph - N/A   Partly Cloudy
9:53 PM 26.1 °F 21.9 °F 24.1 °F 92% 30.53 in 8.0 mi SW 3.5 mph - N/A   Scattered Clouds
10:53 PM 27.0 °F - 23.0 °F 85% 30.54 in 8.0 mi Calm Calm - N/A   Scattered Clouds
11:53 PM 26.1 °F 21.9 °F 24.1 °F 92% 30.51 in 8.0 mi WSW 3.5 mph - N/A   Clear